This is the latest recevied weather packets stored in our database for station/object F4ETJ-1. If no packets are shown the sender has not sent any weather packets the latest 10 day(s).
| Time | Temp. | Humidity | Pressure | Rain* | Wind** | Luminosity | Snow |
|---|---|---|---|---|---|---|---|
| 1787756200 | 33.33° C | 39% | 1002.9 hPa | 0 mm | - | - | - |
| 1787755840 | 33.33° C | 40% | 1003 hPa | 0 mm | - | - | - |
| 1787755479 | 32.78° C | 39% | 1003.1 hPa | 0 mm | - | - | - |
| 1787755119 | 32.78° C | 39% | 1003.2 hPa | 0 mm | - | - | - |
| 1787754759 | 32.78° C | 39% | 1003.4 hPa | 0 mm | - | - | - |
| 1787754398 | 32.78° C | 39% | 1003.5 hPa | 0 mm | - | - | - |
| 1787754038 | 33.33° C | 38% | 1003.7 hPa | 0 mm | - | - | - |
| 1787753678 | 33.33° C | 40% | 1003.7 hPa | 0 mm | - | - | - |
| 1787753317 | 33.33° C | 39% | 1003.8 hPa | 0 mm | - | - | - |
| 1787752957 | 33.33° C | 38% | 1004.1 hPa | 0 mm | - | - | - |
| 1787752597 | 33.33° C | 39% | 1004.1 hPa | 0 mm | - | - | - |
| 1787752236 | 33.33° C | 40% | 1004.1 hPa | 0 mm | - | - | - |
| 1787751876 | 33.33° C | 40% | 1004 hPa | 0 mm | - | - | - |
| 1787751517 | 32.78° C | 41% | 1004.1 hPa | 0 mm | - | - | - |
| 1787751155 | 32.22° C | 42% | 1004.2 hPa | 0 mm | - | - | - |
| 1787750795 | 32.78° C | 42% | 1004.3 hPa | 0 mm | - | - | - |
| 1787750435 | 32.78° C | 42% | 1004.5 hPa | 0 mm | - | - | - |
| 1787750074 | 32.22° C | 43% | 1004.5 hPa | 0 mm | - | - | - |
| 1787749714 | 32.22° C | 44% | 1004.6 hPa | 0 mm | - | - | - |
| 1787749354 | 31.11° C | 45% | 1004.5 hPa | 0 mm | - | - | - |
| 1787748994 | 31.11° C | 44% | 1004.6 hPa | 0 mm | - | - | - |
| 1787748633 | 31.67° C | 43% | 1004.5 hPa | 0 mm | - | - | - |
| 1787748273 | 31.67° C | 45% | 1004.7 hPa | 0 mm | - | - | - |
| 1787747912 | 31.11° C | 46% | 1004.9 hPa | 0 mm | - | - | - |
| 1787747552 | 31.11° C | 46% | 1005.2 hPa | 0 mm | - | - | - |
* Rain latest hour (hover to see other rain measurements)
** Current wind speed in m/s (hover to see current wind gust speed)